RYR97VJ EDSB-GMTT

Flight info

Callsign RYR97VJ
Flight time N/A
Altitude 37000
Route STR1Y STR R11 OBORN R112 MIRGU DCT MOROK DCT GILIR DCT NINTU DCT MEBAK DCT REPSI DCT LERGA DCT MINSO DCT NARAK DCT AGN DCT MAQAB DCT TIVLI N869 GALTO M143 LAMAD
Aircraft B738/M-SDE3FGILRWY/SB1

Departure

Time N/A
Airport Karlsruhe Baden-Baden Airport (EDSB)

Arrival

Time 2026-04-26 16:54
Airport Tangier Ibn Battuta Airport (GMTT)
Time Latitude Longitude Altitude Speed Heading
2026-04-26 15:36 42.25521 -0.72430 37087 ft 444 kts 201°
2026-04-26 15:36 42.22640 -0.73923 37098 ft 443 kts 201°
2026-04-26 15:36 42.16882 -0.76903 37090 ft 443 kts 201°
2026-04-26 15:37 42.11130 -0.79874 37082 ft 442 kts 201°
2026-04-26 15:37 42.05392 -0.82832 37082 ft 442 kts 201°
2026-04-26 15:38 41.99652 -0.85784 37077 ft 442 kts 201°
2026-04-26 15:38 41.93909 -0.88730 37073 ft 441 kts 202°
2026-04-26 15:39 41.88166 -0.91672 37067 ft 442 kts 202°
2026-04-26 15:39 41.83393 -0.94113 37074 ft 442 kts 202°
2026-04-26 15:40 41.76676 -0.97542 37076 ft 442 kts 202°
2026-04-26 15:40 41.70932 -1.00470 37080 ft 442 kts 202°
2026-04-26 15:41 41.65243 -1.03571 37066 ft 441 kts 210°
2026-04-26 15:41 41.60162 -1.08100 37074 ft 439 kts 216°
2026-04-26 15:42 41.55176 -1.12792 37074 ft 439 kts 216°
2026-04-26 15:42 41.50160 -1.17436 37068 ft 439 kts 216°
2026-04-26 15:43 41.45162 -1.22014 37075 ft 439 kts 216°
2026-04-26 15:44 41.37603 -1.28911 37083 ft 439 kts 216°
2026-04-26 15:44 41.30045 -1.35795 37094 ft 439 kts 215°
2026-04-26 15:45 41.22481 -1.42666 37097 ft 439 kts 215°
2026-04-26 15:46 41.14915 -1.49523 37105 ft 438 kts 216°
2026-04-26 15:46 41.11549 -1.52563 37099 ft 438 kts 215°
2026-04-26 15:47 41.02336 -1.60868 37112 ft 437 kts 216°
2026-04-26 15:48 40.97312 -1.65387 37114 ft 437 kts 215°
2026-04-26 15:48 40.92281 -1.69904 37123 ft 437 kts 216°
2026-04-26 15:49 40.87247 -1.74416 37131 ft 437 kts 216°
2026-04-26 15:49 40.82217 -1.78918 37125 ft 437 kts 216°
2026-04-26 15:50 40.78023 -1.82661 37125 ft 437 kts 216°
2026-04-26 15:50 40.72985 -1.87145 37119 ft 437 kts 215°
2026-04-26 15:51 40.67942 -1.91627 37124 ft 437 kts 215°
2026-04-26 15:51 40.62902 -1.96101 37135 ft 437 kts 215°
2026-04-26 15:52 40.57844 -2.00581 37119 ft 438 kts 215°
2026-04-26 15:52 40.52786 -2.05054 37120 ft 438 kts 215°
2026-04-26 15:53 40.47719 -2.09523 37114 ft 439 kts 215°
2026-04-26 15:53 40.42648 -2.13992 37110 ft 439 kts 215°
2026-04-26 15:54 40.37568 -2.18454 37101 ft 439 kts 215°
2026-04-26 15:54 40.32484 -2.22912 37098 ft 439 kts 215°
2026-04-26 15:55 40.27409 -2.27358 37102 ft 439 kts 215°
2026-04-26 15:55 40.22321 -2.31805 37080 ft 439 kts 216°
2026-04-26 15:56 40.17245 -2.36238 37085 ft 439 kts 215°
2026-04-26 15:56 40.12160 -2.40670 37090 ft 439 kts 215°
2026-04-26 15:57 40.07075 -2.45092 37088 ft 439 kts 214°
2026-04-26 15:57 40.02030 -2.49470 37090 ft 439 kts 215°
2026-04-26 15:58 39.96946 -2.53875 37097 ft 438 kts 214°
2026-04-26 15:58 39.91862 -2.58275 37096 ft 438 kts 215°
2026-04-26 15:59 39.86777 -2.62665 37094 ft 438 kts 215°
2026-04-26 15:59 39.81689 -2.67051 37096 ft 438 kts 214°
2026-04-26 16:00 39.76604 -2.71428 37094 ft 439 kts 215°
2026-04-26 16:00 39.71515 -2.75801 37094 ft 439 kts 214°
2026-04-26 16:01 39.66417 -2.80171 37096 ft 439 kts 216°
2026-04-26 16:01 39.61317 -2.84534 37093 ft 439 kts 214°
2026-04-26 16:02 39.56218 -2.88891 37095 ft 439 kts 215°
2026-04-26 16:02 39.51104 -2.93254 37087 ft 440 kts 215°
2026-04-26 16:03 39.45992 -2.97610 37082 ft 440 kts 214°
2026-04-26 16:03 39.40870 -3.01952 37079 ft 441 kts 213°
2026-04-26 16:04 39.35271 -3.05209 37089 ft 443 kts 201°
2026-04-26 16:04 39.29473 -3.07928 37075 ft 443 kts 201°
2026-04-26 16:05 39.23682 -3.10682 37072 ft 444 kts 202°
2026-04-26 16:05 39.17938 -3.13459 37074 ft 444 kts 202°
2026-04-26 16:06 39.12143 -3.16268 37069 ft 445 kts 202°
2026-04-26 16:06 39.06308 -3.19093 37063 ft 445 kts 202°
2026-04-26 16:07 39.00544 -3.21875 37066 ft 446 kts 202°
2026-04-26 16:07 38.94729 -3.24674 37061 ft 446 kts 202°
2026-04-26 16:08 38.88876 -3.27486 37056 ft 446 kts 202°
2026-04-26 16:08 38.83102 -3.30258 37060 ft 446 kts 202°
2026-04-26 16:09 38.77287 -3.33044 37056 ft 446 kts 202°
2026-04-26 16:09 38.71476 -3.35823 37053 ft 446 kts 202°
2026-04-26 16:10 38.65664 -3.38598 37052 ft 446 kts 202°
2026-04-26 16:10 38.59855 -3.41367 37048 ft 445 kts 202°
2026-04-26 16:11 38.54043 -3.44133 37038 ft 445 kts 202°
2026-04-26 16:11 38.48243 -3.46889 37052 ft 445 kts 202°
2026-04-26 16:12 38.42433 -3.49644 37058 ft 445 kts 202°
2026-04-26 16:12 38.33721 -3.53767 37048 ft 445 kts 202°
2026-04-26 16:13 38.27910 -3.56511 37034 ft 446 kts 202°
2026-04-26 16:13 38.22093 -3.59254 37033 ft 446 kts 202°
2026-04-26 16:14 38.16278 -3.61991 37031 ft 446 kts 202°
2026-04-26 16:15 38.07738 -3.66605 37027 ft 444 kts 206°
2026-04-26 16:15 38.02112 -3.69866 37028 ft 445 kts 206°
2026-04-26 16:16 37.93684 -3.74674 37031 ft 445 kts 206°
2026-04-26 16:16 37.87986 -3.77888 37021 ft 445 kts 206°
2026-04-26 16:17 37.82368 -3.81047 37031 ft 445 kts 206°
2026-04-26 16:17 37.76707 -3.84225 37025 ft 445 kts 206°
2026-04-26 16:18 37.68217 -3.88984 37033 ft 445 kts 206°
2026-04-26 16:19 37.59715 -3.93737 37035 ft 445 kts 206°
2026-04-26 16:20 37.51212 -3.98479 37037 ft 445 kts 206°
2026-04-26 16:20 37.42710 -4.03209 37040 ft 446 kts 206°
2026-04-26 16:21 37.37035 -4.06360 37038 ft 446 kts 206°
2026-04-26 16:21 37.31357 -4.09507 37043 ft 446 kts 206°
2026-04-26 16:22 37.25675 -4.12651 37045 ft 446 kts 206°
2026-04-26 16:22 37.19993 -4.15789 37048 ft 446 kts 206°
2026-04-26 16:23 37.14321 -4.18917 36803 ft 445 kts 206°
2026-04-26 16:23 37.11545 -4.20446 36538 ft 438 kts 206°
2026-04-26 16:23 37.08733 -4.21993 36125 ft 434 kts 206°
2026-04-26 16:24 37.06016 -4.23487 35781 ft 430 kts 206°
2026-04-26 16:24 37.03246 -4.25009 35391 ft 428 kts 206°
2026-04-26 16:24 37.00571 -4.26478 35017 ft 425 kts 206°
2026-04-26 16:24 36.97874 -4.27958 34650 ft 422 kts 205°
2026-04-26 16:25 36.95194 -4.29428 34281 ft 419 kts 205°
2026-04-26 16:25 36.92531 -4.30888 33878 ft 417 kts 205°
2026-04-26 16:25 36.89880 -4.32339 33460 ft 415 kts 206°
2026-04-26 16:25 36.87246 -4.33780 33068 ft 412 kts 205°
2026-04-26 16:26 36.84633 -4.35208 32690 ft 408 kts 205°
2026-04-26 16:26 36.82879 -4.36166 32456 ft 406 kts 205°
2026-04-26 16:26 36.79571 -4.38266 31968 ft 401 kts 213°
2026-04-26 16:26 36.77225 -4.40111 31628 ft 397 kts 214°
2026-04-26 16:27 36.74918 -4.41990 31275 ft 395 kts 214°
2026-04-26 16:27 36.72629 -4.43864 30921 ft 392 kts 214°
2026-04-26 16:27 36.70350 -4.45718 30577 ft 390 kts 214°
2026-04-26 16:27 36.68080 -4.47547 30233 ft 388 kts 214°
2026-04-26 16:28 36.65816 -4.49359 29848 ft 386 kts 214°
2026-04-26 16:28 36.63557 -4.51155 29451 ft 384 kts 214°
2026-04-26 16:28 36.61315 -4.52935 29082 ft 381 kts 214°
2026-04-26 16:28 36.59087 -4.54705 28721 ft 379 kts 213°
2026-04-26 16:29 36.56866 -4.56464 28355 ft 377 kts 214°
2026-04-26 16:29 36.54655 -4.58211 27975 ft 375 kts 214°
2026-04-26 16:29 36.52460 -4.59946 27644 ft 373 kts 213°
2026-04-26 16:29 36.50277 -4.61670 27276 ft 371 kts 214°
2026-04-26 16:30 36.48098 -4.63389 26929 ft 370 kts 214°
2026-04-26 16:30 36.45930 -4.65099 26566 ft 369 kts 214°
2026-04-26 16:30 36.43772 -4.66803 26220 ft 367 kts 214°
2026-04-26 16:30 36.41618 -4.68499 25874 ft 366 kts 214°
2026-04-26 16:31 36.39468 -4.70192 25529 ft 365 kts 213°
2026-04-26 16:31 36.37321 -4.71881 25176 ft 365 kts 214°
2026-04-26 16:31 36.35182 -4.73562 24820 ft 364 kts 213°
2026-04-26 16:31 36.33041 -4.75244 24464 ft 364 kts 214°
2026-04-26 16:32 36.30901 -4.76923 24100 ft 364 kts 213°
2026-04-26 16:32 36.29484 -4.78036 23877 ft 364 kts 213°
2026-04-26 16:32 36.26620 -4.80281 23353 ft 364 kts 214°
2026-04-26 16:32 36.24485 -4.81954 22974 ft 363 kts 213°
2026-04-26 16:33 36.22381 -4.83602 22605 ft 362 kts 213°
2026-04-26 16:33 36.20232 -4.85285 22245 ft 360 kts 214°
2026-04-26 16:33 36.18146 -4.86915 21896 ft 359 kts 213°
2026-04-26 16:33 36.16037 -4.88563 21550 ft 357 kts 213°
2026-04-26 16:34 36.13942 -4.90204 21185 ft 356 kts 214°
2026-04-26 16:34 36.11859 -4.91851 20844 ft 355 kts 213°
2026-04-26 16:34 36.09787 -4.93494 20501 ft 354 kts 214°
2026-04-26 16:34 36.07716 -4.95136 20158 ft 353 kts 214°
2026-04-26 16:35 36.05655 -4.96768 19820 ft 352 kts 213°
2026-04-26 16:35 36.03595 -4.98397 19482 ft 351 kts 213°
2026-04-26 16:35 36.01540 -5.00021 19144 ft 350 kts 213°
2026-04-26 16:35 35.99489 -5.01641 18808 ft 350 kts 213°
2026-04-26 16:36 35.97443 -5.03255 18457 ft 350 kts 213°
2026-04-26 16:36 35.95394 -5.04871 18090 ft 349 kts 213°
2026-04-26 16:36 35.93349 -5.06482 17716 ft 348 kts 213°
2026-04-26 16:36 35.91316 -5.08084 17365 ft 346 kts 212°
2026-04-26 16:37 35.89288 -5.09680 17021 ft 345 kts 212°
2026-04-26 16:37 35.87952 -5.10731 16797 ft 344 kts 212°
2026-04-26 16:37 35.85941 -5.12312 16461 ft 342 kts 212°
2026-04-26 16:37 35.84123 -5.14177 16097 ft 341 kts 231°
2026-04-26 16:38 35.83001 -5.16716 15862 ft 337 kts 252°
2026-04-26 16:38 35.82506 -5.19527 15561 ft 335 kts 260°
2026-04-26 16:38 35.82025 -5.23282 15126 ft 334 kts 261°
2026-04-26 16:38 35.81672 -5.26108 14797 ft 334 kts 260°
2026-04-26 16:39 35.81427 -5.28016 14574 ft 333 kts 260°
2026-04-26 16:39 35.81056 -5.30834 14246 ft 333 kts 259°
2026-04-26 16:39 35.80676 -5.33648 13906 ft 333 kts 259°
2026-04-26 16:39 35.80290 -5.36463 13531 ft 334 kts 259°
2026-04-26 16:40 35.79900 -5.39286 13172 ft 334 kts 259°
2026-04-26 16:40 35.79510 -5.42105 12832 ft 334 kts 259°
2026-04-26 16:40 35.79119 -5.44916 12489 ft 333 kts 259°
2026-04-26 16:40 35.78733 -5.47685 12148 ft 331 kts 259°
2026-04-26 16:41 35.78364 -5.50446 11783 ft 322 kts 260°
2026-04-26 16:41 35.78042 -5.53142 11457 ft 314 kts 261°
2026-04-26 16:41 35.77737 -5.55775 11144 ft 307 kts 261°
2026-04-26 16:41 35.77439 -5.58344 10842 ft 300 kts 261°
2026-04-26 16:42 35.77145 -5.60857 10546 ft 293 kts 261°
2026-04-26 16:42 35.76855 -5.63317 10256 ft 287 kts 261°
2026-04-26 16:42 35.76571 -5.65718 9970 ft 281 kts 260°
2026-04-26 16:42 35.76290 -5.68083 9679 ft 277 kts 260°
2026-04-26 16:43 35.76012 -5.70410 9379 ft 273 kts 261°
2026-04-26 16:43 35.75732 -5.72742 9119 ft 278 kts 261°
2026-04-26 16:43 35.75446 -5.75120 8851 ft 284 kts 261°
2026-04-26 16:43 35.75154 -5.77552 8559 ft 288 kts 260°
2026-04-26 16:44 35.74861 -5.79993 8246 ft 288 kts 261°
2026-04-26 16:44 35.74568 -5.82422 7951 ft 287 kts 260°
2026-04-26 16:44 35.74276 -5.84847 7660 ft 286 kts 260°
2026-04-26 16:44 35.73983 -5.87264 7372 ft 285 kts 261°
2026-04-26 16:45 35.73691 -5.89671 7090 ft 284 kts 261°
2026-04-26 16:45 35.73396 -5.92072 6808 ft 283 kts 259°
2026-04-26 16:45 35.72935 -5.94424 6520 ft 282 kts 253°
2026-04-26 16:45 35.72373 -5.96734 6229 ft 282 kts 251°
2026-04-26 16:46 35.71809 -5.99009 5928 ft 282 kts 252°
2026-04-26 16:46 35.71237 -6.01345 5632 ft 281 kts 252°
2026-04-26 16:46 35.70690 -6.03617 5343 ft 280 kts 252°
2026-04-26 16:46 35.70144 -6.05909 5073 ft 279 kts 252°
2026-04-26 16:47 35.69604 -6.08195 4807 ft 277 kts 252°
2026-04-26 16:47 35.69071 -6.10455 4633 ft 272 kts 253°
2026-04-26 16:47 35.68550 -6.12666 4500 ft 266 kts 253°
2026-04-26 16:47 35.68044 -6.14819 4374 ft 259 kts 254°
2026-04-26 16:48 35.67980 -6.16967 4229 ft 251 kts 289°
2026-04-26 16:48 35.68946 -6.18647 4142 ft 238 kts 324°
2026-04-26 16:48 35.70385 -6.19518 4060 ft 225 kts 347°
2026-04-26 16:48 35.71908 -6.19879 3875 ft 224 kts
2026-04-26 16:49 35.73273 -6.19172 3674 ft 212 kts 51°
2026-04-26 16:49 35.73828 -6.17588 3514 ft 199 kts 86°
2026-04-26 16:49 35.73834 -6.15910 3327 ft 193 kts 90°
2026-04-26 16:49 35.73814 -6.14286 3099 ft 187 kts 91°
2026-04-26 16:50 35.73798 -6.12727 2904 ft 178 kts 90°
2026-04-26 16:50 35.73786 -6.11225 2696 ft 173 kts 91°
2026-04-26 16:50 35.73776 -6.09769 2497 ft 167 kts 90°
2026-04-26 16:50 35.73765 -6.08356 2288 ft 163 kts 92°
2026-04-26 16:51 35.73742 -6.06992 2061 ft 157 kts 91°
2026-04-26 16:51 35.73842 -6.05683 1768 ft 149 kts 85°
2026-04-26 16:51 35.73955 -6.04468 1465 ft 137 kts 88°
2026-04-26 16:51 35.73985 -6.03366 1270 ft 117 kts 90°
2026-04-26 16:52 35.73957 -6.02437 1083 ft 105 kts 94°
2026-04-26 16:52 35.73933 -6.01833 965 ft 109 kts 94°
2026-04-26 16:52 35.73898 -6.00540 946 ft 120 kts 92°
2026-04-26 16:52 35.73831 -5.99506 854 ft 124 kts 95°
2026-04-26 16:53 35.73727 -5.98458 780 ft 125 kts 95°
2026-04-26 16:53 35.73616 -5.97358 628 ft 130 kts 94°
2026-04-26 16:53 35.73538 -5.96228 454 ft 132 kts 91°
2026-04-26 16:53 35.73433 -5.95135 251 ft 128 kts 90°
2026-04-26 16:54 35.73343 -5.94082 112 ft 121 kts 92°
2026-04-26 16:54 35.73255 -5.93103 58 ft 106 kts 94°
2026-04-26 16:54 35.73195 -5.92437 60 ft 48 kts 97°
2026-04-26 16:54 35.73167 -5.92153 59 ft 30 kts 96°
2026-04-26 16:55 35.73146 -5.91927 59 ft 23 kts 98°
2026-04-26 16:55 35.73111 -5.91790 53 ft 14 kts 124°
2026-04-26 16:55 35.73027 -5.91735 59 ft 13 kts 173°
2026-04-26 16:55 35.72937 -5.91726 59 ft 13 kts 176°
2026-04-26 16:56 35.72757 -5.91708 59 ft 14 kts 174°
2026-04-26 16:56 35.72644 -5.91699 59 ft 18 kts 175°
2026-04-26 16:56 35.72513 -5.91685 59 ft 17 kts 166°
2026-04-26 16:57 35.72433 -5.91594 54 ft 16 kts 111°
2026-04-26 16:57 35.72431 -5.91461 59 ft 15 kts 85°
2026-04-26 16:57 35.72458 -5.91247 55 ft 9 kts 20°
2026-04-26 16:58 35.72504 -5.91247 59 ft 4 kts 353°
2026-04-26 16:58 35.72520 -5.91249 59 ft 3 kts 355°
2026-04-26 16:58 35.72523 -5.91249 59 ft 0 kts 355°